Location: ?????? ??????
(44.3742°N, 135.2221°E)
Time: 02:25:57
(UTC+00:00)

CZ-2C R/B - Pass Details

Date: 19 May 2025
Orbit: 782 x 867 km, 98.4° (Epoch: 13 June)

Event Time Altitude Azimuth Distance (km) Brightness Sun altitude
Exits shadow 15:50:41 48° 132° (SE) 1,020 2.9 -24.5°
Maximum altitude 15:51:58 66° 73° (ENE) 858 2.7 -24.4°
Drops below altitude 10° 15:57:05 10° 352° (N) 2,349 5.9 -24.2°
Sets 15:59:25 0° 350° (N) 3,281 6.8 -24.1°
